Regional Weather Roundup
Issued by NWS Cleveland, OH

Home | Current Version | Previous Version | Text Only | Print | Product List | Glossary Off
Versions: 1 2 3 4 5 6 7 8 9 10 11 12 13 14 15 16 17 18 19 20 21 22 23 24 25 26 27 28 29 30 31 32 33 34 35 36 37 38 39 40 41 42 43 44 45 46 47 48 49 50

000
ASUS41 KCLE 300002
RWRCLE
OHIO REGIONAL WEATHER ROUNDUP
NATIONAL WEATHER SERVICE CLEVELAND, OH
800 PM EDT WED MAR 29 2017

NOTE: "FAIR" INDICATES FEW OR NO CLOUDS BELOW 12,000 FEET WITH NO
SIGNIFICANT WEATHER AND/OR OBSTRUCTIONS TO VISIBILITY.

OHZ001>008-015>018-024>027-034-035-043-044-300100-
   NORTHWEST OHIO

CITY           SKY/WX    TMP DP  RH WIND       PRES   REMARKS
DEFIANCE       PTCLDY    47  31  53 E12       30.16F
FINDLAY        MOCLDY    49  30  48 NE17G23   30.15F
TOLEDO EXPRESS CLOUDY    48  30  49 E10       30.20S
TOLEDO EXEC    CLOUDY    47  33  58 E6        30.23R
LIMA           CLOUDY    48  34  58 NE15      30.13F
$$

OHZ009>014-019>023-028>033-038-089-300100-
   NORTHEAST OHIO

CITY           SKY/WX    TMP DP  RH WIND       PRES   REMARKS
CLE-HOPKINS    CLOUDY    49  30  48 NE12      30.25S
CLE-LAKEFRONT  PTCLDY    43  36  76 NE9       30.23F
CUY CO. ARPT   MOCLDY    48  32  53 NE12      30.24S
LORAIN-ELYRIA  CLOUDY    47  30  51 E12       30.21F
ASHTABULA      CLOUDY    47  30  51 CALM      30.25S
AKRON-CANTON   PTCLDY    51  31  46 NE13      30.19S
WOOSTER        CLEAR     48  34  58 NE10      30.19F
MANSFIELD      CLEAR     46  32  58 NE9       30.18F
YOUNGSTOWN     MOCLDY    48  30  49 N10       30.23R
$$

OHZ042-051>053-060>062-070>072-077>081-300100-
  SOUTHWEST OHIO

CITY           SKY/WX    TMP DP  RH WIND       PRES   REMARKS
CINC-COVINGTON MOCLDY    55  45  68 E14       30.07R
CINC-LUNKEN    CLEAR     54  47  77 NE5       30.09S
HAMILTON       CLEAR     56  44  64 E9        30.09R
DAYTON         MOCLDY    55  38  52 E10       30.10S
WRIGHT-PAT AFB CLEAR     57  37  47 NE9       30.09F
DAYTON GENERAL CLOUDY    56  40  55 E8        30.07F
WILMINGTON     CLOUDY    54  43  66 E6        30.08F
$$

OHZ036-037-039>041-045>050-054>059-063>069-073>076-082>088-300100-
  CENTRAL AND SOUTHEAST OHIO

CITY           SKY/WX    TMP DP  RH WIND       PRES   REMARKS
COLUMBUS       MOCLDY    58  38  47 NE12      30.12F
OSU AIRPORT    CLEAR     56  37  49 NE13      30.11F
BOLTON FIELD   NOT AVBL
RICKENBACK AFB CLEAR     55  37  51 E8        30.11S
NEWARK         CLEAR     58  33  39 NE6       30.13R
MARION         CLOUDY    49  37  63 NE16      30.15F
LANCASTER      CLEAR     57  39  51 NE7       30.12F
ZANESVILLE     CLEAR     57  34  41 NE8       30.13F
NEW PHILLY     NOT AVBL
$$




USA.gov is the U.S. government's official web portal to all federal, state and local government web resources and services.